STARLINK-11179, 60190

Orbit data source: Space-Track

STARLINK-11179, 60190 is a payload satellite owned by SpaceX/Seattle (US) in LEO that was launched on Wed, 03 Jul 2024 UTC via an FALCON 9 launch vehicle from the Air Force Eastern Test Range (AFETR). Payload-class satellites include a variety of spacecraft equipped with specific instruments for various scientific and technological missions. These include communications satellites like Starlink; space stations such as the ISS; scientific satellites like the Hubble; Earth observation satellites from companies like Planet Labs, Umbra, and HawkEye 360; GPS; miniature CubeSats for education and research; and military/defense satellites.

Loading next visibility...
Identifier
60190, 2024-124H
Orbit
LEO
Last TLE update
13 hours ago
Origin
Manufacturer
SpaceX/Seattle
Mission
Operational Commercial Communications
Bus & Motor
STARLINK V2M, Unknown motor
Mass
730 kg wet, ~700 kg dry
Launch date (UTC)
2024-07-03 (1 year ago)
Launch vehicle
FALCON 9
Launch site
Air Force Eastern Test Range (AFETR)
Object type
Payload
Rocket body
Debris
Shape & HBR
Box + 2 Pan, 29 m
Radar Cross Section
36.964 m², Large (>1 m²)

Expand to show TLE details & history

TLE from 13 hours ago
0 STARLINK-11179
1 60190U 24124H   25181.57869905 -.00001020  00000-0 -35753-5 0  9998
2 60190  53.1586 324.3313 0000369  44.7435 315.3612 15.69705619 56933
Epoch: 2025-06-30T13:53Z
TLE epoch observation values (Epoch: 2025-06-30T13:53:19.597Z)
Latitude
-0.00009°
Longitude
-162.88691°
Altitude
360.477 km
Speed
7.694 km/s
True Right ascension
21h 37m 19s
True Declination
0° 00' 00"
Sunlit
Object was in full shadow at epoch
Visualization orbit readout
Latitude
-24.35843°
Longitude
34.13052°
Altitude
367.028 km
Speed
7.689 km/s
Apparent Right ascension
07h 27m 35s
Apparent Declination
-51° 19' 44"
Sunlit
Object is in daylight
Visualization observer readout
Local Sidereal Time
14:37:40
Azimuth
231.256° WSW
Elevation
-40.184°
Doppler factor
1
Orbital elements
Apogee altitude
360.249 km
Perigee altitude
359.752 km
Semi-major axis
6,738.137 km
Eccentricity
0.00004
Inclination
53.1586°
RAAN
324.3313°
Arg. of periapsis
44.7435°
True anomaly
Unknown
Mean anomaly
315.3612°
Eccentric anomaly
Unknown
Mean motion
3.92404 °/min
Orbital period
91.74 mins
BSTAR
-0.0000035753
Loading maneuver chart data...
Loading SW <> Apogee altitude chart data...
Loading historical data...
Loading historical data...
Loading historical data...
Loading historical data...
Loading historical data...
Loading historical data...
Loading historical data...

STARLINK-11179 Visibility forecast

Observer location: undefined°, undefined°

Span
Click to sort rows by Start time (UTC) header in descending order
Start Az.
Max El. time (UTC)
Max El. Az.
Max El.
End time (UTC)
End Az.
4 mins2025-07-01 11:26:26.768Z187.697° SSW2025-07-01 11:28:26.768Z144.172° SSE21.873°2025-07-01 11:30:26.768Z86.111° E
|